Location: Baia Mare
(47.6567°N, 23.5850°E)
Time: 06:41:11
(UTC+03:00)

ISS - Pass Details

Date: 25 May 2018
Orbit: 402 x 408 km, 51.6° (Epoch: 20 September)

Event Time Altitude Azimuth Distance (km) Brightness Sun altitude
Rises 22:54:45 0° 268° (W) 2,320 0.5 -13.7°
Reaches altitude 10° 22:56:53 10° 275° (W) 1,460 -0.5 -13.9°
Maximum altitude 23:00:02 45° 349° (N) 564 -2.6 -14.2°
Drops below altitude 10° 23:03:12 10° 64° (ENE) 1,460 -1.1 -14.5°
Sets 23:05:20 0° 71° (ENE) 2,320 -0.1 -14.7°
